{"data":{"norad_id":68367,"intl_designator":"2026-061H","name":"RASSVET-3 8","alt_names":[],"object_type":"PAYLOAD","status":"ACTIVE","operator":null,"country":"CIS","launch_date":"2026-03-23","launch_site_code":"PLMSC","launch_vehicle":null,"mission":null,"orbit_class":"UNKNOWN","rcs_meters":null,"size_class":null,"mass_kg":null,"dimensions":null,"purposes":[],"wikipedia_slug":null,"has_3d_model":false,"image_url":null,"decayed_at":null,"tle_current":{"epoch":"2026-05-25T04:25:34.046976Z","epoch_age_seconds":62216,"freshness":"FRESH","line1":"1 68367U 26061H   26145.18442184  .00067815  00000+0  29437-3 0  9999","line2":"2 68367  82.2960  37.9630 0007409 176.1964 183.9363 15.84564234  9926","mean_motion":15.84564234,"eccentricity":0.0007409,"inclination_deg":82.296,"raan_deg":37.963,"arg_perigee_deg":176.1964,"mean_anomaly_deg":183.9363,"bstar":0.00029437,"rev_number":992,"period_min":90.876719864169,"perigee_km":312.59119293655,"apogee_km":322.51286493964,"semimajor_km":6695.6890289381,"source":"CELESTRAK","updated_at":"2026-05-25T13:38:07.765635Z"}}}